Stations météo

Publicité
Cap Ferret, France (7500): Température de l'air & dewpoint: 12.08.2019 12:00:00 - 18.08.2019 12:00:00 (CEST)Cap Ferret, France (7500): Vitesse du vent & gusts: 12.08.2019 12:00:00 - 18.08.2019 12:00:00 (CEST)Cap Ferret, France (7500): Direction du vent: 12.08.2019 12:00:00 - 18.08.2019 12:00:00 (CEST)Cap Ferret, France (7500): reduced air pressure: 12.08.2019 12:00:00 - 18.08.2019 12:00:00 (CEST)Cap Ferret, France (7500): visibility: 12.08.2019 12:00:00 - 18.08.2019 12:00:00 (CEST)Cap Ferret, France (7500): Quantités de précipitations: 12.08.2019 12:00:00 - 18.08.2019 12:00:00 (CEST)
Date & Time tt [°C] td [°C] ff [km/h] ff [knt] fx [km/h] fx [knt] dd ppp [hPa] vv [km] rr [mm]
18.08.2019 12:00:00 25,1 21,4 17 9 24 13 SSW 1013,2 - 0,0
18.08.2019 11:00:00 23,6 19,9 14 7 20 11 SSW 1012,5 10 0,0
18.08.2019 10:00:00 23,1 20,4 8 4 13 7 SSW 1011,6 - 0,0
18.08.2019 09:00:00 21,9 20,9 4 2 7 4 SSW 1011,2 - 0,0
18.08.2019 08:00:00 19,0 18,0 4 2 9 5 SE 1010,5 10 0,0
18.08.2019 07:00:00 18,7 17,7 7 4 13 7 ESE 1009,8 - 0,0
18.08.2019 06:00:00 19,2 18,0 9 5 13 7 ESE 1009,8 - 0,0
18.08.2019 05:00:00 19,3 18,1 8 4 15 8 NE 1010,3 15 0,0
18.08.2019 04:00:00 19,4 18,1 8 4 12 7 NE 1010,6 - 0,0
18.08.2019 03:00:00 19,7 18,4 9 5 14 8 NE 1010,7 - 0,0
18.08.2019 02:00:00 20,1 18,8 10 5 12 7 ENE 1011,1 15 0,0
18.08.2019 01:00:00 20,1 18,6 7 4 10 6 SE 1012,2 - 0,0
18.08.2019 00:00:00 20,5 18,6 3 2 19 10 NNW 1012,5 - 0,0
17.08.2019 23:00:00 20,9 18,7 10 5 14 8 NW 1012,9 20 0,0
17.08.2019 22:00:00 21,8 19,0 7 4 10 5 NW 1013,2 - 0,0
17.08.2019 21:00:00 23,0 18,3 6 3 11 6 NNW 1013,0 - 0,0
17.08.2019 20:00:00 24,1 18,3 5 3 11 6 WNW 1013,1 20 0,0
17.08.2019 19:00:00 25,6 19,3 7 4 15 8 WSW 1013,6 - 0,0
17.08.2019 18:00:00 25,8 19,4 9 5 18 10 WSW 1013,9 - 0,0
17.08.2019 17:00:00 26,1 19,7 10 5 21 11 SW 1014,4 20 0,0
17.08.2019 16:00:00 26,1 19,7 11 6 22 12 SW 1014,8 - 0,0
17.08.2019 15:00:00 26,3 20,2 15 8 24 13 SW 1015,2 - 0,0
17.08.2019 14:00:00 25,3 19,7 13 7 26 14 SSW 1015,4 20 0,0
17.08.2019 13:00:00 25,3 19,9 16 9 27 14 S 1015,8 - 0,0
17.08.2019 12:00:00 24,8 19,4 15 8 24 13 SSW 1016,0 - 0,0
17.08.2019 11:00:00 24,7 19,8 15 8 24 13 S 1015,8 18 0,0
17.08.2019 10:00:00 24,0 19,7 13 7 25 13 S 1015,5 - 0,0
17.08.2019 09:00:00 22,4 19,6 14 7 20 11 SSW 1015,8 - 0,0
17.08.2019 08:00:00 20,6 18,7 13 7 19 10 SSW 1015,4 15 0,0
17.08.2019 07:00:00 19,7 17,5 12 6 24 13 SW 1015,4 - 0,0
17.08.2019 06:00:00 19,9 17,7 15 8 25 13 SW 1015,4 - 0,0
17.08.2019 05:00:00 19,8 17,6 15 8 21 11 WSW 1015,7 15 0,0
17.08.2019 04:00:00 19,9 17,7 16 9 24 13 WSW 1016,0 - 0,0
17.08.2019 03:00:00 19,7 17,3 20 11 25 14 W 1016,5 - 0,0
17.08.2019 02:00:00 19,5 17,3 20 11 24 13 WSW 1016,6 15 0,0
17.08.2019 01:00:00 18,6 16,4 16 8 21 11 W 1016,9 - 0,0
17.08.2019 00:00:00 18,4 15,8 14 7 17 9 WNW 1016,8 - 0,0
16.08.2019 23:00:00 18,7 15,2 10 6 16 8 WNW 1016,6 15 0,0
16.08.2019 22:00:00 19,9 15,3 12 6 23 12 NW 1016,6 - 0,0
16.08.2019 21:00:00 20,8 15,3 13 7 22 12 NW 1016,1 - 0,0
16.08.2019 20:00:00 21,3 14,9 16 9 29 16 NNW 1015,9 20 0,0
16.08.2019 19:00:00 23,1 15,2 16 8 33 18 NW 1015,9 - 0,0
16.08.2019 18:00:00 24,4 15,1 12 7 26 14 NW 1016,0 - 0,0
16.08.2019 17:00:00 24,8 15,1 15 8 25 14 NW 1016,6 - 0,0
16.08.2019 16:00:00 24,7 15,3 14 8 23 13 NW 1017,0 - 0,0
16.08.2019 15:00:00 24,8 15,1 16 8 22 12 WNW 1017,6 - 0,0
16.08.2019 14:00:00 25,2 15,5 14 8 22 12 WNW 1018,3 20 0,0
16.08.2019 13:00:00 24,3 15,0 10 6 17 9 WSW 1018,7 - 0,0
16.08.2019 12:00:00 24,4 15,3 7 4 13 7 SW 1019,4 - 0,0
16.08.2019 11:00:00 21,7 14,6 6 3 16 9 SE 1019,4 20 0,0
16.08.2019 10:00:00 19,9 14,9 10 5 18 10 ESE 1019,7 - 0,0
16.08.2019 09:00:00 18,2 15,1 8 4 16 9 E 1020,3 - 0,0
16.08.2019 08:00:00 16,6 15,0 6 4 18 10 E 1020,2 15 0,0
16.08.2019 07:00:00 15,7 14,6 10 5 15 8 E 1020,6 - 0,0
16.08.2019 06:00:00 14,9 13,9 9 5 13 7 ENE 1020,6 - 0,0
16.08.2019 05:00:00 15,7 14,7 7 4 14 8 ENE 1021,1 20 0,0
16.08.2019 04:00:00 13,9 12,6 10 5 14 8 NE 1021,3 - 0,0
16.08.2019 03:00:00 13,7 12,3 6 3 8 4 E 1021,6 - 0,0
16.08.2019 02:00:00 14,3 12,5 6 3 9 5 ENE 1022,3 20 0,0
16.08.2019 01:00:00 15,0 12,9 7 4 8 4 NNE 1022,7 - 0,0
16.08.2019 00:00:00 16,2 13,5 7 4 12 7 NE 1022,7 - 0,0
15.08.2019 23:00:00 17,6 14,1 8 4 12 6 NE 1023,1 15 0,0
15.08.2019 22:00:00 18,9 15,0 10 5 17 9 N 1023,2 - 0,0
15.08.2019 21:00:00 20,0 14,6 11 6 18 10 NNW 1022,8 - 0,0
15.08.2019 20:00:00 21,2 14,6 8 4 23 12 NW 1022,6 - 0,0
15.08.2019 19:00:00 22,4 15,0 15 8 27 14 NW 1022,7 - 0,0
15.08.2019 18:00:00 23,0 15,1 14 8 27 15 NW 1022,8 - 0,0
15.08.2019 17:00:00 23,5 15,0 17 9 28 15 NW 1022,9 - 0,0
15.08.2019 16:00:00 24,3 15,5 16 9 24 13 WNW 1023,0 - 0,0
15.08.2019 15:00:00 24,7 15,6 15 8 23 12 WNW 1022,8 - 0,0
15.08.2019 14:00:00 22,4 14,5 16 8 27 15 WNW 1022,8 20 0,0
15.08.2019 13:00:00 21,7 15,3 21 12 31 17 W 1022,7 - 0,0
15.08.2019 12:00:00 22,1 14,2 19 11 33 18 WNW 1022,5 - 0,0
15.08.2019 11:00:00 22,3 15,4 22 12 31 17 WNW 1021,9 15 0,0
15.08.2019 10:00:00 19,5 15,6 16 9 40 22 WNW 1021,9 - 0,0
15.08.2019 09:00:00 20,3 14,6 23 12 40 22 WNW 1021,2 - 0,0
15.08.2019 08:00:00 19,8 13,9 27 15 45 24 WNW 1020,6 15 0,0
15.08.2019 07:00:00 19,2 14,7 24 13 41 22 W 1020,1 - 0,0
15.08.2019 06:00:00 19,0 14,7 30 16 44 24 W 1019,5 - 0,0
15.08.2019 05:00:00 19,2 15,9 29 16 43 23 WNW 1019,5 - 0,0
15.08.2019 04:00:00 19,4 17,5 27 15 44 24 WNW 1019,5 - 0,0
15.08.2019 03:00:00 19,6 18,4 31 17 39 21 W 1019,4 - 0,0
15.08.2019 02:00:00 20,1 19,1 28 15 36 20 W 1019,5 15 0,0
15.08.2019 01:00:00 20,5 19,5 28 15 42 23 WSW 1019,6 - 0,2
15.08.2019 00:00:00 20,5 19,3 21 11 32 17 SW 1019,5 - 0,0
14.08.2019 23:00:00 20,4 18,9 16 9 30 16 WSW 1019,7 12 0,0
14.08.2019 22:00:00 21,0 17,8 23 13 35 19 W 1019,6 - 0,0
14.08.2019 21:00:00 21,7 16,9 15 8 28 15 WSW 1019,3 - 0,0
14.08.2019 20:00:00 22,1 16,8 15 8 25 14 SW 1019,1 20 0,0
14.08.2019 19:00:00 22,4 16,4 16 9 28 15 WSW 1019,2 - 0,0
14.08.2019 18:00:00 22,5 12,7 19 10 34 19 SW 1019,3 - 0,0
14.08.2019 17:00:00 23,9 16,2 21 11 31 17 WSW 1019,5 20 0,0
14.08.2019 16:00:00 24,2 15,9 14 8 22 12 WSW 1019,8 - 0,0
14.08.2019 15:00:00 24,4 15,1 15 8 26 14 WSW 1020,1 - 0,0
14.08.2019 14:00:00 24,1 15,0 16 9 23 13 WSW 1020,1 20 0,0
14.08.2019 13:00:00 23,9 14,0 11 6 19 10 WSW 1020,6 - 0,0
14.08.2019 12:00:00 24,2 13,1 8 4 22 12 S 1020,5 - 0,0
14.08.2019 11:00:00 22,3 13,6 11 6 25 13 SE 1020,6 20 0,0
14.08.2019 10:00:00 19,8 13,0 16 8 28 15 SE 1020,5 - 0,0
14.08.2019 09:00:00 17,8 13,1 12 7 23 13 ESE 1021,0 - 0,0
14.08.2019 08:00:00 16,0 12,7 12 6 26 14 ESE 1020,5 15 0,0
14.08.2019 07:00:00 15,3 12,8 11 6 20 11 ENE 1020,9 - 0,0
14.08.2019 06:00:00 15,2 12,3 11 6 17 9 E 1020,6 - 0,0
14.08.2019 05:00:00 15,6 12,3 10 6 17 9 E 1020,7 15 0,0
14.08.2019 04:00:00 16,1 12,5 8 5 14 8 E 1021,4 - 0,0
14.08.2019 03:00:00 16,9 13,0 10 6 15 8 ENE 1021,6 - 0,0
14.08.2019 02:00:00 17,2 13,1 7 4 18 10 ENE 1022,0 15 0,0
14.08.2019 01:00:00 17,8 12,9 13 7 20 11 NE 1022,3 - 0,0
14.08.2019 00:00:00 17,4 12,7 11 6 16 9 NNE 1022,8 - 0,0
13.08.2019 23:00:00 17,7 12,6 10 5 16 9 NNE 1022,9 20 0,0
13.08.2019 22:00:00 18,1 12,3 10 5 17 9 NNE 1022,9 - 0,0
13.08.2019 21:00:00 19,3 12,6 9 5 21 11 N 1022,7 - 0,0
13.08.2019 20:00:00 20,5 12,7 12 6 25 14 NNW 1022,5 20 0,0
13.08.2019 19:00:00 21,6 13,0 15 8 26 14 NNW 1022,5 - 0,0
13.08.2019 18:00:00 22,5 13,0 15 8 24 13 NW 1022,6 - 0,0
13.08.2019 17:00:00 23,4 13,0 16 8 25 13 NW 1022,9 - 0,0
13.08.2019 16:00:00 23,6 13,2 15 8 25 14 WNW 1023,0 - 0,0
13.08.2019 15:00:00 23,6 12,9 15 8 22 12 WNW 1023,3 - 0,0
13.08.2019 14:00:00 23,2 12,8 10 6 22 12 W 1023,4 15 0,0
13.08.2019 13:00:00 22,5 13,3 10 5 16 9 SW 1023,7 - 0,0
13.08.2019 12:00:00 20,1 11,6 4 2 13 7 NE 1024,1 - 0,0
13.08.2019 11:00:00 19,9 12,6 6 3 16 9 ESE 1024,0 12 0,0
13.08.2019 10:00:00 18,9 11,9 5 3 16 9 E 1023,7 - 0,0
13.08.2019 09:00:00 18,6 13,0 8 5 17 9 ESE 1023,6 - 0,0
13.08.2019 08:00:00 15,5 13,7 7 4 12 6 SE 1023,5 12 0,0
13.08.2019 07:00:00 14,2 12,1 4 2 7 4 E 1023,2 - 0,0
13.08.2019 06:00:00 15,1 12,4 2 1 7 4 E 1023,0 - 0,0
13.08.2019 05:00:00 15,7 12,4 5 3 8 4 ESE 1023,1 15 0,0
13.08.2019 04:00:00 16,6 12,1 4 2 15 8 E 1023,4 - 0,0
13.08.2019 03:00:00 17,1 12,0 5 3 11 6 N 1023,8 - 0,0
13.08.2019 02:00:00 17,7 12,4 8 4 29 15 N 1024,3 15 0,0
13.08.2019 01:00:00 18,1 12,1 17 9 29 16 NW 1024,5 - 0,0
13.08.2019 00:00:00 18,2 11,5 12 7 23 13 NNW 1024,3 - 0,0
12.08.2019 23:00:00 18,5 11,6 14 8 29 16 NW 1024,2 13 0,0
12.08.2019 22:00:00 18,8 12,1 16 9 34 18 NW 1023,6 - 0,0
12.08.2019 21:00:00 19,4 11,7 25 13 39 21 NW 1023,0 - 0,0
12.08.2019 20:00:00 20,4 12,6 25 14 44 24 NW 1022,5 20 0,0
12.08.2019 19:00:00 21,7 13,1 26 14 41 22 NW 1022,1 - 0,0
12.08.2019 18:00:00 22,8 14,1 27 15 41 22 WNW 1022,0 - 0,0
12.08.2019 17:00:00 23,1 14,9 25 14 38 21 WNW 1022,1 20 0,0
12.08.2019 16:00:00 23,0 15,1 27 15 47 25 W 1021,9 - 0,0
12.08.2019 15:00:00 23,7 14,9 29 16 42 23 W 1021,7 - 0,0
12.08.2019 14:00:00 23,2 13,9 31 17 42 23 W 1021,6 15 0,0
12.08.2019 13:00:00 23,0 14,0 30 16 40 21 W 1021,3 - 0,0
12.08.2019 12:00:00 22,2 14,8 22 12 35 19 W 1021,1 - 0,0

tt = Température de l'air
td = dewpoint
ff = Vitesse du vent
fx = gusts
dd = Direction du vent
ppp = reduced air pressure
vv = visibility
rr = Quantités de précipitations

stations d'obs. à proximité